Location: Владивосток
(43.1151°N, 131.8856°E)
Time: 00:53:11
(UTC+10:00)

FO-29 - Pass Details

Date: 30 April 2024
Orbit: 801 x 1320 km, 98.6° (Epoch: 19 May)

Event Time Altitude Azimuth Distance (km) Brightness Sun altitude
Rises 04:48:23 0° 4° (N) 4,253 13.4 -13.5°
Reaches altitude 10° 04:51:37 10° 351° (N) 3,321 12.6 -13.0°
Maximum altitude 04:57:27 24° 302° (WNW) 2,440 11.4 -12.2°
Enters shadow 05:02:48 12° 256° (WSW) 3,202 11.6 -11.3°
